Theta_e
309 308 307 306 305 305 305 304 304 304 304 303 302 302 301 301 300 300 300 299 299 299 299 299 299 298 298 298 297 297 298 298 297 297 298 297 297 297 297 296 295 295 294
307 307 307 306 306 305 305 305 304 304 304 303 303 301 301 301 300 300 299 299 299 299 299 299 299 298 298 297 297 296 297 297 297 297 298 297 297 297 297 296 295 294 293
307 306 306 306 305 305 304 304 304 304 304 303 303 302 301 300 300 299 299 299 299 299 298 299 299 298 298 297 297 296 297 297 298 298 297 297 297 297 296 296 296 294 293
306 305 305 304 305 305 304 304 304 304 303 303 303 302 301 301 300 300 299 299 299 299 298 298 298 298 298 297 297 296 297 297 298 298 298 298 297 297 296 296 295 293 292
305 304 304 304 304 304 304 304 304 303 303 302 302 302 302 301 300 300 299 299 299 299 298 298 298 298 297 297 296 296 297 297 297 298 297 297 297 296 296 296 295 293 292
304 303 303 303 303 303 303 303 303 303 302 302 302 302 302 301 301 300 300 299 299 299 298 298 298 298 298 298 298 298 296 297 298 297 298 297 297 296 296 295 293 293 291
303 303 303 303 303 303 302 303 303 302 302 302 302 302 301 301 301 301 300 300 299 299 298 298 298 298 297 297 297 299 299 299 299 299 299 298 296 296 293 293 294 294 293
303 303 303 303 303 302 302 302 302 302 302 302 302 302 301 301 301 301 301 301 300 299 298 298 298 297 297 297 296 296 296 298 299 300 299 298 297 296 293 295 295 294 293
304 304 304 303 303 302 302 302 302 302 302 302 302 302 302 302 301 301 302 302 301 300 299 298 298 298 297 297 296 295 296 297 297 297 298 297 296 295 295 295 293 292 294
306 306 305 304 303 303 303 303 303 302 302 302 302 302 302 302 302 302 301 302 301 300 300 299 299 298 297 298 298 297 297 297 297 296 296 296 296 295 294 294 292 292 292
308 307 307 306 305 304 304 303 303 303 303 303 302 302 302 302 302 302 301 302 301 300 300 300 299 299 299 299 299 298 298 297 297 296 295 295 295 295 294 292 292 291 291
309 309 308 307 306 305 305 304 303 303 302 302 302 302 302 302 301 301 301 302 302 300 300 300 300 300 300 300 300 299 299 299 297 296 296 296 295 295 294 292 292 292 291
310 310 309 307 306 306 305 304 303 303 302 301 301 301 301 301 301 301 301 301 302 303 300 300 300 300 300 301 300 300 300 299 298 297 296 295 295 294 294 293 292 292 290
310 310 308 307 306 305 304 303 302 301 301 302 301 301 300 300 301 301 301 301 302 302 303 301 301 301 300 300 299 300 300 299 298 297 296 295 295 295 294 292 292 290 290
310 309 307 306 305 303 302 302 301 301 301 301 301 301 301 300 301 301 300 301 300 300 301 301 301 301 300 299 298 298 299 299 298 297 296 296 295 295 293 292 291 290 291
308 307 305 304 303 302 302 301 301 300 300 300 299 299 299 299 299 299 300 300 300 300 299 300 301 300 297 297 297 297 298 298 298 297 297 296 295 294 292 291 291 291 290
308 305 303 302 302 301 300 300 299 299 298 298 298 299 299 299 299 299 299 298 298 299 300 300 300 300 298 296 296 297 297 297 297 296 295 296 295 293 292 291 291 291 290
306 303 302 301 300 299 299 298 298 297 297 297 298 298 298 298 298 298 298 299 299 298 298 298 299 300 300 298 297 297 296 296 297 296 295 294 294 293 292 292 291 290 290
301 300 299 299 298 298 298 297 297 297 297 297 297 297 297 298 298 298 298 299 299 298 297 297 297 298 299 299 298 297 297 296 296 295 295 294 293 293 291 292 292 291 290
299 298 298 298 297 297 297 297 297 296 296 296 296 296 296 296 297 297 297 298 299 299 298 297 297 297 298 299 299 298 297 297 296 295 294 293 293 292 291 291 292 290 291
298 298 297 296 296 296 297 297 296 295 294 294 295 295 296 296 296 296 296 296 297 299 299 298 298 298 298 298 299 299 298 297 296 295 294 293 292 291 291 291 291 291 291
298 297 297 296 296 296 295 294 293 293 292 292 292 292 293 293 294 294 295 295 295 296 297 299 299 298 299 298 298 298 298 298 296 295 293 293 292 291 291 291 291 291 291
297 297 296 296 295 295 294 292 292 292 292 292 292 291 292 292 292 292 292 293 293 294 295 296 299 299 299 299 299 298 298 297 297 296 294 292 291 291 291 291 291 290 290
296 296 295 295 294 293 292 292 292 292 292 292 292 292 292 292 292 292 292 292 292 292 293 293 295 297 299 299 299 298 297 297 297 296 295 292 291 291 290 290 290 290 290
296 295 294 293 293 292 293 293 292 292 292 291 291 291 291 291 292 292 292 292 292 292 292 292 293 294 295 298 298 298 297 297 296 295 294 292 291 290 290 290 290 290 289
295 294 293 292 292 292 292 292 291 292 291 290 291 290 290 290 291 291 291 292 292 292 291 291 292 292 294 295 298 298 297 296 295 295 293 291 290 290 290 289 289 289 289
Wind_Speed
26 30 32 32 34 34 35 36 35 34 34 32 31 32 32 31 30 31 31 30 29 28 27 26 25 23 23 21 20 18 19 19 15 21 21 21 22 20 19 15 19 18 26
21 23 27 31 31 32 34 34 34 33 32 32 33 33 34 34 33 33 33 31 31 30 29 28 28 25 26 24 23 22 21 21 21 20 23 22 20 22 16 15 15 21 22
16 19 22 24 28 31 31 31 31 33 33 33 33 35 34 35 34 35 35 34 32 32 31 30 30 27 28 27 25 24 23 22 21 21 21 22 21 18 14 15 18 22 25
15 17 19 22 24 26 27 28 29 31 32 33 35 35 36 36 35 35 35 35 34 34 33 31 31 30 29 29 27 26 23 22 20 21 18 19 21 13 15 16 21 21 27
14 15 17 18 20 22 25 26 26 28 30 32 33 33 35 35 36 37 37 36 36 35 33 33 33 32 31 29 29 28 24 22 20 17 19 21 17 12 11 12 16 20 22
12 14 14 15 17 20 21 22 24 26 27 29 31 34 34 38 38 38 38 39 37 37 37 36 34 31 28 28 28 26 23 24 21 21 18 18 14 11 10 11 14 15 6
12 12 13 14 15 17 18 21 23 25 26 29 33 34 36 38 37 37 37 37 38 38 38 36 34 34 33 31 30 27 27 27 26 26 25 24 17 14 13 14 12 13 15
12 13 13 14 15 16 18 21 21 22 25 28 31 33 36 39 38 37 36 35 36 38 38 38 37 36 33 31 30 30 30 30 30 28 27 26 22 19 15 12 15 17 19
15 15 15 16 17 17 19 21 22 23 25 28 30 32 34 38 37 35 33 34 36 40 40 37 37 37 35 29 29 32 30 30 25 22 22 23 17 15 16 16 17 14 14
19 18 16 16 18 19 19 20 21 23 25 26 29 31 33 35 35 35 34 34 33 32 36 36 39 40 37 31 31 32 31 32 27 24 22 21 19 20 17 17 16 15 12
20 19 19 19 20 20 19 19 20 22 23 25 26 30 30 32 34 34 33 35 35 30 31 30 34 38 35 33 33 35 38 33 28 24 24 19 18 18 18 17 16 15 14
22 24 24 22 21 20 19 19 20 21 23 26 26 28 31 32 32 34 34 36 36 32 31 29 30 35 38 38 33 32 29 24 23 25 26 27 25 23 20 18 16 16 17
26 29 28 24 22 20 19 20 20 21 23 26 22 21 24 27 29 30 31 34 36 36 33 28 28 32 35 36 36 31 28 28 28 25 24 26 24 21 19 18 17 14 13
31 32 29 25 23 20 18 18 20 22 22 22 21 20 22 24 26 27 28 30 33 32 35 31 28 28 33 34 32 31 31 32 32 29 27 25 22 23 23 20 18 14 14
34 34 28 23 21 19 19 18 19 23 22 22 24 22 22 21 21 22 25 29 30 30 26 25 27 25 26 29 30 31 31 31 30 31 30 25 24 22 25 21 17 16 15
29 28 24 20 18 16 16 18 19 21 21 23 24 26 29 31 31 30 24 19 25 27 21 22 23 25 26 27 27 28 31 31 33 31 31 30 27 23 24 19 19 20 17
29 20 18 17 16 15 15 15 17 22 21 21 22 20 19 25 26 26 25 24 27 20 21 23 24 26 26 27 28 28 29 34 32 31 30 33 30 26 24 22 23 21 18
23 20 18 17 16 15 15 16 15 16 15 19 20 16 19 22 21 22 21 20 21 22 24 23 22 26 26 28 29 29 28 28 31 32 31 32 34 30 26 25 26 25 21
19 18 16 14 12 13 13 14 14 17 17 20 23 20 18 18 19 19 18 19 21 21 22 24 25 25 26 26 30 30 30 30 32 31 30 30 33 32 27 28 28 25 23
16 14 12 11 11 11 12 14 13 14 17 18 16 16 21 20 17 17 17 19 21 23 22 23 25 27 27 29 30 31 30 30 30 32 31 30 31 34 28 28 29 25 25
13 11 10 9 10 11 10 8 10 10 14 15 16 17 16 19 18 19 20 20 19 24 25 27 26 29 29 30 32 32 32 31 31 32 31 30 30 29 31 30 29 30 28
11 9 9 10 9 8 9 9 11 10 10 13 16 17 15 17 19 19 20 21 21 21 21 29 30 28 31 32 33 32 32 32 31 32 31 31 31 30 28 29 28 27 28
9 7 9 8 7 6 8 11 11 11 13 15 17 17 15 15 17 19 21 21 22 23 22 22 23 28 28 31 35 35 35 34 35 37 33 31 31 30 30 29 27 26 26
7 8 8 6 6 8 10 10 9 11 13 14 15 16 17 18 18 19 22 23 22 23 22 22 24 23 25 27 29 34 37 35 36 37 36 33 32 31 30 28 28 28 27
7 6 6 6 8 9 9 9 10 12 13 14 15 16 19 20 21 21 21 23 24 24 23 22 22 23 24 25 28 30 33 36 36 35 36 33 34 34 31 30 29 28 28
7 6 6 7 6 6 9 9 12 12 15 16 17 17 18 20 21 23 23 23 23 24 24 23 21 21 21 22 25 27 30 32 33 33 34 34 34 33 32 30 32 29 28
Wind_Direction
239 236 235 234 231 229 230 230 231 231 229 226 225 227 227 229 228 228 230 233 234 237 238 240 243 246 246 247 253 257 255 255 257 280 290 301 305 306 309 310 328 319 328
244 240 238 235 234 230 230 233 230 231 230 231 231 231 230 231 231 229 230 229 231 235 238 239 242 243 247 247 249 250 253 259 262 271 287 296 300 304 306 310 320 321 328
246 241 240 239 234 234 233 235 236 229 229 225 229 231 232 234 232 233 233 232 231 235 238 239 242 241 245 245 245 247 249 254 257 265 276 286 295 295 308 307 313 327 329
243 240 238 237 235 235 234 235 239 238 233 230 227 230 233 233 235 235 234 233 234 236 236 237 240 241 242 244 244 245 245 250 253 260 270 282 288 287 303 305 316 330 330
250 245 242 240 238 236 236 234 237 237 239 240 236 233 231 232 234 235 235 234 233 234 238 240 239 240 243 247 245 245 242 244 250 249 271 273 276 293 293 306 311 325 332
246 242 242 240 236 237 238 236 235 236 238 242 243 240 239 235 234 233 236 234 234 235 237 238 240 240 240 243 244 245 244 240 244 244 253 264 277 291 295 302 317 325 332
240 243 241 238 237 239 240 242 241 242 243 241 242 241 242 242 239 236 233 234 235 236 239 238 239 240 241 242 242 245 245 244 246 250 254 258 265 280 291 299 299 293 297
240 240 239 240 240 240 239 240 244 245 248 249 248 248 248 249 246 242 234 233 234 238 240 239 237 238 238 239 240 245 244 241 242 247 253 258 258 267 273 277 287 292 292
242 240 237 235 238 238 240 243 245 242 244 245 250 250 248 252 250 245 235 231 234 235 236 237 236 237 241 233 235 237 243 244 245 245 249 252 248 246 260 272 272 280 297
245 245 241 238 238 239 245 248 253 253 257 256 257 255 254 254 252 248 240 234 233 230 236 237 236 236 237 228 226 232 234 239 236 241 238 238 246 252 252 252 260 258 273
249 247 243 240 241 246 252 255 259 260 260 259 258 264 260 257 258 252 242 231 235 234 232 233 230 229 228 225 223 229 235 245 241 238 238 235 241 253 254 249 252 249 253
247 237 241 242 243 247 253 262 266 268 263 265 264 267 268 266 261 259 251 239 234 232 236 236 233 228 228 225 223 226 229 229 238 233 235 241 242 247 246 246 247 247 253
238 237 243 243 244 246 252 260 267 271 263 267 261 258 263 268 269 265 255 246 240 232 237 239 244 237 229 225 225 224 222 219 224 224 224 234 236 244 243 240 237 250 260
240 239 243 242 243 244 247 259 263 264 261 259 264 263 265 266 264 262 260 251 244 239 238 235 239 244 228 223 225 220 220 218 216 216 221 232 239 236 231 225 219 237 245
242 240 239 241 238 242 253 257 257 265 266 261 263 267 271 271 269 269 261 252 244 244 236 233 229 236 210 212 218 221 214 214 214 219 220 225 227 234 215 217 231 226 230
233 232 233 228 232 238 251 267 271 275 278 276 274 272 275 273 274 270 268 271 257 248 227 221 223 218 207 209 212 214 215 212 213 212 216 223 222 222 209 217 222 220 226
230 230 221 219 230 244 256 260 271 286 286 284 283 282 279 280 283 282 276 264 260 247 222 216 222 221 210 210 214 214 213 214 214 210 210 216 216 217 210 213 218 219 223
226 225 217 223 235 246 256 263 276 279 286 298 296 293 295 294 289 286 281 268 253 244 238 233 226 226 219 210 214 214 215 211 209 208 207 211 212 213 211 212 219 216 220
227 229 237 246 251 257 266 271 274 277 280 285 295 306 310 301 299 291 275 251 240 239 237 237 237 234 225 217 212 213 211 208 208 207 206 204 210 210 209 213 217 217 215
225 228 231 237 254 265 270 271 276 285 289 288 296 305 309 310 304 298 288 275 242 241 240 239 236 232 229 226 218 209 208 207 207 207 207 207 208 209 206 208 211 209 212
221 224 234 243 249 260 269 287 299 308 304 305 307 312 312 312 301 291 287 287 278 251 245 240 240 237 231 230 227 212 208 207 205 206 206 207 205 204 207 207 208 213 214
214 219 228 239 250 262 281 283 285 289 300 304 305 313 316 311 311 307 299 292 291 286 284 257 248 243 238 230 229 217 210 207 204 205 205 206 204 206 204 201 200 204 208
212 218 232 243 261 273 272 281 285 292 297 295 296 300 307 309 310 312 314 309 305 301 292 282 265 245 244 240 233 226 214 209 207 210 205 204 204 201 200 198 196 194 196
214 227 239 252 265 270 272 281 294 307 309 308 313 313 307 302 300 297 300 305 305 302 296 286 278 277 261 249 240 230 227 220 217 216 212 205 204 201 199 197 196 195 195
212 226 242 253 261 262 275 296 302 312 312 316 314 312 311 310 309 301 296 299 299 300 300 294 286 277 272 262 246 239 233 226 225 223 217 209 206 202 197 195 193 193 191
215 226 243 249 266 293 293 303 312 320 325 318 314 311 313 310 308 312 305 296 295 298 299 295 290 282 277 270 255 239 236 227 225 225 220 207 204 200 194 195 194 191 190